Terug naar catalogus

OPS 4682 DEB

ActiefPO
NORAD 38385·DEBRIS·🇺🇸 United States

Gelanceerd Apr 3, 1965 vanaf Vandenberg Space Force Base

Loading…

Volgende Passages (komende 24 uur)

TLE

VerouderendSource: Space-Track

Epoch: Sep 10, 2026, 14:10 UTC

1 38385U 65027CN  26253.59078294  .00000360  00000-0  12228-2 0  9995
2 38385  90.2455   0.7235 0044165 208.0530 151.8209 12.96711664626529

Volg OPS 4682 DEB in realtime met AllMySat

Download on the App Store